Flag for Norway Weather past 2 weeks in Indre Arna, Norway

Now
55 °F

Cool.


Feels Like: 55 °F
Forecast: 53 / 59 °F
Wind: 2 mph from Southeast

Location: Bergen / Florida

Current Time: Aug 23, 2014 at 9:53:00 AM

Latest Report: Aug 23, 2014 at 9:00 AM


Visibility: N/A

Pressure: 29.57 "Hg

Humidity: 82%

Dew point: 49 °F

Location of Indre ArnaLocation

Historic Weather in Indre Arna — Graph

°F

Indre Arna temperature yesterday

Maximum temperature yesterday: 64 °F (at 4:00 PM)
Minimum temperature yesterday: 49 °F (at 6:00 AM)
Average temperature yesterday: 55 °F

Past Weeks' High & Low Weather Summary

 TemperatureHumidityPressure
High74 °F (Aug 9, 9:00 PM)90% (Aug 15, 4:00 AM)29.96 "Hg (Aug 15, 4:00 AM)
Low49 °F (Aug 22, 6:00 AM)31% (Aug 11, 1:00 PM)29.18 "Hg (Aug 18, 11:00 AM)
Average59 °F70%29.52 "Hg
* Reported Aug 8 8:00 AM — Aug 23 8:00 AM, Indre Arna, Weather by CustomWeather, © 2014

Note: Actual official high and low records may vary slightly from our data, if they occured in-between our weather recording intervals... More about our weather records

Advertising

Indre Arna weather history for previous 24 hours

 ConditionsComfort  
Time TempWeatherWind HumidityBarometerVisibility
8:00 AM
Aug 23
52 °FPartly sunny.2 mph88%29.57 "Hg25 mi
7:00 AM50 °FCool.1 mph88%29.56 "HgN/A
6:00 AM51 °FCool.1 mph86%29.56 "HgN/A
5:00 AM52 °FCool.2 mph87%29.57 "HgN/A
4:00 AM52 °FCool.1 mph87%29.57 "HgN/A
3:00 AM51 °FCool.2 mph87%29.58 "HgN/A
2:00 AM51 °FCool.1 mph88%29.58 "HgN/A
1:00 AM50 °FCool.2 mph88%29.59 "HgN/A
12:00 AM50 °FCool.1 mph88%29.60 "HgN/A
11:00 PM
Aug 22
50 °FPassing clouds.1 mph87%29.60 "Hg25 mi
10:00 PM51 °FCool.2 mph86%29.59 "HgN/A
9:00 PM52 °FCool.1 mph85%29.59 "HgN/A
8:00 PM53 °FSprinkles. Overcast.1 mph84%29.60 "Hg19 mi
7:00 PM52 °FCool.2 mph83%29.61 "HgN/A
6:00 PM54 °FCool.N/A73%29.60 "HgN/A
5:00 PM63 °FPartly sunny.3 mph55%29.59 "Hg25 mi
4:00 PM64 °FMild.3 mph51%29.59 "HgN/A
3:00 PM63 °FMild.3 mph56%29.60 "HgN/A
2:00 PM62 °FPartly sunny.2 mph52%29.60 "Hg25 mi
1:00 PM62 °FRefreshingly cool.2 mph56%29.61 "HgN/A
12:00 PM63 °FMild.2 mph56%29.61 "HgN/A
11:00 AM59 °FPartly sunny.1 mph64%29.62 "Hg19 mi
10:00 AM58 °FCool.1 mph64%29.63 "HgN/A
9:00 AM55 °FCool.1 mph77%29.63 "HgN/A
Weather by CustomWeather, © 2014

See weather overviewHow to use our weather pages